Time,TemperatureF,DewpointF,PressureIn,WindDirection,WindDirectionDegrees,WindSpeedMPH,WindSpeedGustMPH,Humidity,HourlyPrecipIn,Conditions,Clouds,dailyrainin,SoftwareType,DateUTC
2013-09-21 00:00:00,55.0,-99.9,-100.00,WSW,239,12.0,13.0,-999,-99.99,,,-99.99,,2013-09-21 06:00:00,
2013-09-21 00:42:00,55.0,-99.9,-100.00,WSW,239,12.0,13.0,-999,-99.99,,,-99.99,,2013-09-21 06:42:00,
2013-09-21 00:53:00,55.0,-99.9,-100.00,WSW,239,12.0,13.0,-999,-99.99,,,-99.99,,2013-09-21 06:53:00,
2013-09-21 01:00:00,53.0,-99.9,-100.00,SSW,195,6.0,10.0,-999,-99.99,,,-99.99,,2013-09-21 07:00:00,
2013-09-21 01:42:00,53.0,-99.9,-100.00,SSW,195,6.0,10.0,-999,-99.99,,,-99.99,,2013-09-21 07:42:00,
2013-09-21 01:53:00,53.0,-99.9,-100.00,SSW,195,6.0,10.0,-999,-99.99,,,-99.99,,2013-09-21 07:53:00,
2013-09-21 02:00:00,57.0,-99.9,-100.00,SW,217,12.0,14.0,-999,-99.99,,,-99.99,,2013-09-21 08:00:00,
2013-09-21 02:22:00,57.0,-99.9,-100.00,SW,217,12.0,14.0,-999,-99.99,,,-99.99,,2013-09-21 08:22:00,
2013-09-21 02:32:00,57.0,-99.9,-100.00,SW,217,12.0,14.0,-999,-99.99,,,-99.99,,2013-09-21 08:32:00,
2013-09-21 02:42:00,57.0,-99.9,-100.00,SW,217,12.0,14.0,-999,-99.99,,,-99.99,,2013-09-21 08:42:00,
2013-09-21 02:52:00,57.0,-99.9,-100.00,SW,217,12.0,14.0,-999,-99.99,,,-99.99,,2013-09-21 08:52:00,
2013-09-21 03:00:00,57.0,-99.9,-100.00,SSW,213,14.0,18.0,-999,-99.99,,,-99.99,,2013-09-21 09:00:00,
2013-09-21 03:43:00,57.0,-99.9,-100.00,SSW,213,14.0,18.0,-999,-99.99,,,-99.99,,2013-09-21 09:43:00,
2013-09-21 03:54:00,57.0,-99.9,-100.00,SSW,213,14.0,18.0,-999,-99.99,,,-99.99,,2013-09-21 09:54:00,
2013-09-21 04:00:00,57.0,-99.9,-100.00,SW,225,15.0,17.0,-999,-99.99,,,-99.99,,2013-09-21 10:00:00,
2013-09-21 04:53:00,57.0,-99.9,-100.00,SW,225,15.0,17.0,-999,-99.99,,,-99.99,,2013-09-21 10:53:00,
2013-09-21 06:00:00,54.0,-99.9,-100.00,WSW,248,5.0,6.0,-999,-99.99,,,-99.99,,2013-09-21 12:00:00,
2013-09-21 06:42:00,54.0,-99.9,-100.00,WSW,248,5.0,6.0,-999,-99.99,,,-99.99,,2013-09-21 12:42:00,
2013-09-21 06:52:00,54.0,-99.9,-100.00,WSW,248,5.0,6.0,-999,-99.99,,,-99.99,,2013-09-21 12:52:00,
2013-09-21 07:00:00,54.0,-99.9,-100.00,SW,227,4.0,6.0,-999,-99.99,,,-99.99,,2013-09-21 13:00:00,
2013-09-21 07:22:00,54.0,-99.9,-100.00,SW,227,4.0,6.0,-999,-99.99,,,-99.99,,2013-09-21 13:22:00,
2013-09-21 07:32:00,54.0,-99.9,-100.00,SW,227,4.0,6.0,-999,-99.99,,,-99.99,,2013-09-21 13:32:00,
2013-09-21 07:42:00,54.0,-99.9,-100.00,SW,227,4.0,6.0,-999,-99.99,,,-99.99,,2013-09-21 13:42:00,
2013-09-21 07:53:00,54.0,-99.9,-100.00,SW,227,4.0,6.0,-999,-99.99,,,-99.99,,2013-09-21 13:53:00,
2013-09-21 08:00:00,57.0,-99.9,-100.00,SSE,152,6.0,7.0,-999,-99.99,,,-99.99,,2013-09-21 14:00:00,
2013-09-21 08:52:00,57.0,-99.9,-100.00,SSE,152,6.0,7.0,-999,-99.99,,,-99.99,,2013-09-21 14:52:00,
2013-09-21 10:00:00,68.0,-99.9,-100.00,NNW,336,4.0,5.0,-999,-99.99,,,-99.99,,2013-09-21 16:00:00,
2013-09-21 10:43:00,68.0,-99.9,-100.00,NNW,336,4.0,5.0,-999,-99.99,,,-99.99,,2013-09-21 16:43:00,
2013-09-21 10:54:00,68.0,-99.9,-100.00,NNW,336,4.0,5.0,-999,-99.99,,,-99.99,,2013-09-21 16:54:00,
2013-09-21 11:00:00,70.0,-99.9,-100.00,NNW,342,6.0,8.0,-999,-99.99,,,-99.99,,2013-09-21 17:00:00,
2013-09-21 11:43:00,70.0,-99.9,-100.00,NNW,342,6.0,8.0,-999,-99.99,,,-99.99,,2013-09-21 17:43:00,
2013-09-21 11:53:00,70.0,-99.9,-100.00,NNW,342,6.0,8.0,-999,-99.99,,,-99.99,,2013-09-21 17:53:00,
2013-09-21 12:00:00,73.0,-99.9,-100.00,NW,305,5.0,6.0,-999,-99.99,,,-99.99,,2013-09-21 18:00:00,
2013-09-21 12:22:00,73.0,-99.9,-100.00,NW,305,5.0,6.0,-999,-99.99,,,-99.99,,2013-09-21 18:22:00,
2013-09-21 12:33:00,73.0,-99.9,-100.00,NW,305,5.0,6.0,-999,-99.99,,,-99.99,,2013-09-21 18:33:00,
2013-09-21 12:42:00,73.0,-99.9,-100.00,NW,305,5.0,6.0,-999,-99.99,,,-99.99,,2013-09-21 18:42:00,
2013-09-21 12:52:00,73.0,-99.9,-100.00,NW,305,5.0,6.0,-999,-99.99,,,-99.99,,2013-09-21 18:52:00,
2013-09-21 13:00:00,78.0,-99.9,-100.00,NW,324,4.0,6.0,-999,-99.99,,,-99.99,,2013-09-21 19:00:00,
2013-09-21 13:42:00,78.0,-99.9,-100.00,NW,324,4.0,6.0,-999,-99.99,,,-99.99,,2013-09-21 19:42:00,
2013-09-21 13:52:00,78.0,-99.9,-100.00,NW,324,4.0,6.0,-999,-99.99,,,-99.99,,2013-09-21 19:52:00,
2013-09-21 14:00:00,83.0,-99.9,-100.00,WNW,290,3.0,5.0,-999,-99.99,,,-99.99,,2013-09-21 20:00:00,
2013-09-21 14:22:00,83.0,-99.9,-100.00,WNW,290,3.0,5.0,-999,-99.99,,,-99.99,,2013-09-21 20:22:00,
2013-09-21 14:32:00,83.0,-99.9,-100.00,WNW,290,3.0,5.0,-999,-99.99,,,-99.99,,2013-09-21 20:32:00,
2013-09-21 14:43:00,83.0,-99.9,-100.00,WNW,290,3.0,5.0,-999,-99.99,,,-99.99,,2013-09-21 20:43:00,
2013-09-21 14:52:00,83.0,-99.9,-100.00,WNW,290,3.0,5.0,-999,-99.99,,,-99.99,,2013-09-21 20:52:00,
2013-09-21 15:00:00,81.0,-99.9,-100.00,North,6,5.0,7.0,-999,-99.99,,,-99.99,,2013-09-21 21:00:00,
2013-09-21 15:45:00,81.0,-99.9,-100.00,North,6,5.0,7.0,-999,-99.99,,,-99.99,,2013-09-21 21:45:00,
2013-09-21 15:54:00,81.0,-99.9,-100.00,North,6,5.0,7.0,-999,-99.99,,,-99.99,,2013-09-21 21:54:00,
2013-09-21 16:00:00,84.0,-99.9,-100.00,NNE,28,1.0,4.0,-999,-99.99,,,-99.99,,2013-09-21 22:00:00,
2013-09-21 16:43:00,84.0,-99.9,-100.00,NNE,28,1.0,4.0,-999,-99.99,,,-99.99,,2013-09-21 22:43:00,
2013-09-21 16:53:00,84.0,-99.9,-100.00,NNE,28,1.0,4.0,-999,-99.99,,,-99.99,,2013-09-21 22:53:00,
2013-09-21 17:00:00,83.0,-99.9,-100.00,WSW,256,6.0,7.0,-999,-99.99,,,-99.99,,2013-09-21 23:00:00,
2013-09-21 17:42:00,83.0,-99.9,-100.00,WSW,256,6.0,7.0,-999,-99.99,,,-99.99,,2013-09-21 23:42:00,
2013-09-21 17:53:00,83.0,-99.9,-100.00,WSW,256,6.0,7.0,-999,-99.99,,,-99.99,,2013-09-21 23:53:00,
2013-09-21 18:00:00,81.0,-99.9,-100.00,WNW,289,7.0,9.0,-999,-99.99,,,-99.99,,2013-09-22 00:00:00,
2013-09-21 18:43:00,81.0,-99.9,-100.00,WNW,289,7.0,9.0,-999,-99.99,,,-99.99,,2013-09-22 00:43:00,
2013-09-21 18:52:00,81.0,-99.9,-100.00,WNW,289,7.0,9.0,-999,-99.99,,,-99.99,,2013-09-22 00:52:00,
2013-09-21 19:00:00,74.0,-99.9,-100.00,WSW,251,3.0,3.0,-999,-99.99,,,-99.99,,2013-09-22 01:00:00,
2013-09-21 19:42:00,74.0,-99.9,-100.00,WSW,251,3.0,3.0,-999,-99.99,,,-99.99,,2013-09-22 01:42:00,
2013-09-21 19:52:00,74.0,-99.9,-100.00,WSW,251,3.0,3.0,-999,-99.99,,,-99.99,,2013-09-22 01:52:00,
2013-09-21 20:00:00,63.0,-99.9,-100.00,South,189,6.0,9.0,-999,-99.99,,,-99.99,,2013-09-22 02:00:00,
2013-09-21 20:42:00,63.0,-99.9,-100.00,South,189,6.0,9.0,-999,-99.99,,,-99.99,,2013-09-22 02:42:00,
2013-09-21 20:52:00,63.0,-99.9,-100.00,South,189,6.0,9.0,-999,-99.99,,,-99.99,,2013-09-22 02:52:00,
2013-09-21 21:00:00,-999.0,-99.9,-100.00,SW,220,15.0,17.0,-999,-99.99,,,-99.99,,2013-09-22 03:00:00,
2013-09-21 21:45:00,66.0,-99.9,-100.00,SW,220,15.0,17.0,-999,-99.99,,,-99.99,,2013-09-22 03:45:00,
2013-09-21 21:54:00,66.0,-99.9,-100.00,SW,220,15.0,17.0,-999,-99.99,,,-99.99,,2013-09-22 03:54:00,
2013-09-21 22:00:00,59.0,-99.9,-100.00,West,277,6.0,7.0,-999,-99.99,,,-99.99,,2013-09-22 04:00:00,
2013-09-21 22:44:00,59.0,-99.9,-100.00,West,277,6.0,7.0,-999,-99.99,,,-99.99,,2013-09-22 04:44:00,
2013-09-21 22:54:00,59.0,-99.9,-100.00,West,277,6.0,7.0,-999,-99.99,,,-99.99,,2013-09-22 04:54:00,
2013-09-21 23:00:00,62.0,-99.9,-100.00,SW,229,12.0,14.0,-999,-99.99,,,-99.99,,2013-09-22 05:00:00,
2013-09-21 23:43:00,62.0,-99.9,-100.00,SW,229,12.0,14.0,-999,-99.99,,,-99.99,,2013-09-22 05:43:00,
2013-09-21 23:53:00,62.0,-99.9,-100.00,SW,229,12.0,14.0,-999,-99.99,,,-99.99,,2013-09-22 05:53:00,